Location: Banksville Park
(38.5557°N, 75.1182°W)
Time: 13:33:48
(UTC+00:00)

Landsat 5 - Pass Details

Date: 19 September 2020
Orbit: 528 x 655 km, 98.2° (Epoch: 22 October)

Event Time Altitude Azimuth Distance (km) Brightness Sun altitude
Rises 09:21:55 0° 185° (S) 2,953 6.8 -17.0°
Reaches altitude 10° 09:24:14 10° 193° (SSW) 2,053 5.9 -16.6°
Maximum altitude 09:28:26 38° 262° (W) 1,000 4.1 -15.8°
Drops below altitude 10° 09:32:39 10° 330° (NNW) 2,064 6.1 -15.0°
Sets 09:35:00 0° 339° (NNW) 2,971 7.0 -14.6°
